DW3929 Weather Reports


Display with metric or nautical units.
time (UTC)temp
F
wind
direction
speed
MPH
gust
MPH
rain 1hr
in
rain 24hr
in
rain mn
in
humidity
%
barometer
mb
20201026213832 56 229 8.0 15.0 0.00 0.00 0.00 83 1014.5
20201026213330 56 203 5.0 12.0 0.00 0.00 0.00 83 1014.5
20201026212831 56 232 6.0 14.0 0.00 0.00 0.00 82 1014.6
20201026212318 57 149 7.0 14.0 0.00 0.00 0.00 82 1014.3
20201026211828 57 175 3.0 17.0 0.00 0.00 0.00 82 1014.3
20201026211336 58 230 6.0 17.0 0.00 0.00 0.00 81 1014.3
20201026210821 58 171 4.0 12.0 0.00 0.00 0.00 82 1013.9
20201026210334 58 234 7.0 12.0 0.00 0.00 0.00 82 1014.0
20201026205841 59 229 5.0 15.0 0.00 0.00 0.00 82 1014.2
20201026205345 59 232 4.0 18.0 0.00 0.00 0.00 82 1014.1
20201026204822 59 212 7.0 18.0 0.00 0.00 0.00 81 1014.3
20201026204328 60 247 5.0 10.0 0.00 0.00 0.00 82 1014.1
20201026203835 60 213 4.0 13.0 0.00 0.00 0.00 82 1014.1
20201026203325 60 174 6.0 13.0 0.00 0.00 0.00 81 1013.9
20201026202843 60 233 6.0 12.0 0.00 0.00 0.00 81 1013.7
20201026202321 61 221 6.0 11.0 0.00 0.00 0.00 81 1013.8
20201026201835 61 225 5.0 15.0 0.00 0.00 0.00 81 1013.5
20201026201327 61 198 6.0 15.0 0.00 0.00 0.00 80 1013.4
20201026200827 61 229 6.0 15.0 0.00 0.00 0.00 80 1013.4
20201026200345 62 162 3.0 15.0 0.00 0.00 0.00 81 1013.4
20201026195823 62 234 7.0 15.0 0.00 0.00 0.00 80 1013.5
20201026195331 63 159 5.0 14.0 0.00 0.00 0.00 79 1013.7
20201026194819 63 202 7.0 19.0 0.00 0.00 0.00 78 1013.5
20201026194328 64 163 8.0 19.0 0.00 0.00 0.00 77 1013.6
20201026193836 65 167 8.0 20.0 0.00 0.00 0.00 75 1013.5
20201026193325 66 202 8.0 20.0 0.00 0.00 0.00 74 1013.5
20201026192821 68 220 9.0 19.0 0.00 0.00 0.00 75 1013.6
20201026192333 68 169 11.0 18.0 0.00 0.00 0.00 73 1013.5
20201026191838 70 273 7.0 18.0 0.00 0.00 0.00 72 1013.4
20201026191322 71 191 8.0 15.0 0.00 0.00 0.00 71 1013.6
20201026190832 72 257 5.0 18.0 0.00 0.00 0.00 72 1013.2
20201026190340 72 232 6.0 18.0 0.00 0.00 0.00 71 1013.2
20201026185825 75 238 6.0 15.0 0.00 0.00 0.00 67 1013.1
20201026185334 79 191 6.0 19.0 0.00 0.00 0.00 61 1013.1
20201026184822 83 188 7.0 19.0 0.00 0.00 0.00 66 1013.2
20201026184330 83 13 0.0 7.0 0.00 0.00 0.00 71 1012.6
20201026183822 83 16 3.0 6.0 0.00 0.00 0.00 70 1012.7
20201026183330 83 5 4.0 6.0 0.00 0.00 0.00 73 1012.8
20201026182817 82 9 2.0 7.0 0.00 0.00 0.00 72 1012.8
20201026182324 82 15 4.0 7.0 0.00 0.00 0.00 72 1012.9
20201026181832 82 5 3.0 10.0 0.00 0.00 0.00 72 1013.1
20201026181327 83 22 5.0 10.0 0.00 0.00 0.00 72 1013.1
20201026180835 83 55 2.0 8.0 0.00 0.00 0.00 74 1013.1
20201026180321 83 321 3.0 11.0 0.00 0.00 0.00 72 1013.2
20201026175832 84 319 5.0 12.0 0.00 0.00 0.00 71 1013.2
20201026175320 84 351 6.0 12.0 0.00 0.00 0.00 73 1013.3
20201026174828 84 355 0.0 7.0 0.00 0.00 0.00 73 1013.3
20201026174337 83 311 2.0 6.0 0.00 0.00 0.00 74 1013.4
20201026173828 82 360 1.0 8.0 0.00 0.00 0.00 76 1013.4
20201026173334 82 15 3.0 8.0 0.00 0.00 0.00 75 1013.4
20201026172822 82 321 1.0 7.0 0.00 0.00 0.00 76 1013.5
20201026172330 82 350 4.0 9.0 0.00 0.00 0.00 78 1013.6
20201026171836 82 318 5.0 10.0 0.00 0.00 0.00 78 1013.7
20201026171327 81 17 6.0 11.0 0.00 0.00 0.00 79 1013.9
20201026170835 81 13 5.0 11.0 0.00 0.00 0.00 80 1013.9
20201026170325 80 13 3.0 10.0 0.00 0.00 0.00 81 1013.9
20201026165831 80 331 4.0 9.0 0.00 0.00 0.00 81 1014.0
20201026165319 80 13 5.0 8.0 0.00 0.00 0.00 81 1014.1
20201026164830 80 346 5.0 8.0 0.00 0.00 0.00 82 1014.2
20201026164336 79 21 2.0 7.0 0.00 0.00 0.00 83 1014.2
20201026163829 79 22 3.0 7.0 0.00 0.00 0.00 83 1014.3
20201026163334 79 9 5.0 9.0 0.00 0.00 0.00 83 1014.4
20201026162824 79 10 3.0 9.0 0.00 0.00 0.00 83 1014.4
20201026162337 79 340 4.0 7.0 0.00 0.00 0.00 83 1014.4
20201026161830 79 329 2.0 6.0 0.00 0.00 0.00 84 1014.4
20201026161339 79 337 3.0 7.0 0.00 0.00 0.00 84 1014.5
20201026160825 78 329 5.0 8.0 0.00 0.00 0.00 85 1014.5
20201026160332 78 324 4.0 8.0 0.00 0.00 0.00 85 1014.4
20201026155817 78 347 2.0 7.0 0.00 0.00 0.00 86 1014.4
20201026155327 77 323 4.0 7.0 0.00 0.00 0.00 86 1014.4
20201026154820 77 322 1.0 7.0 0.00 0.00 0.00 87 1014.4
20201026154326 77 338 0.0 7.0 0.00 0.00 0.00 88 1014.3
20201026153819 76 336 3.0 7.0 0.00 0.00 0.00 88 1014.3
20201026153329 76 336 1.0 6.0 0.00 0.00 0.00 88 1014.4
20201026152837 76 336 0.0 4.0 0.00 0.00 0.00 89 1014.4
20201026152325 76 340 1.0 7.0 0.00 0.00 0.00 89 1014.4
20201026151833 75 335 4.0 8.0 0.00 0.00 0.00 89 1014.4
20201026151321 75 330 0.0 8.0 0.00 0.00 0.00 89 1014.4
20201026150827 75 298 2.0 8.0 0.00 0.00 0.00 89 1014.3
20201026150319 75 294 1.0 5.0 0.00 0.00 0.00 90 1014.2
20201026145826 75 292 0.0 0.0 0.00 0.00 0.00 91 1014.3
20201026145319 75 292 0.0 0.0 0.00 0.00 0.00 90 1014.3
20201026144834 75 292 0.0 0.0 0.00 0.00 0.00 90 1014.2
20201026144340 75 292 0.0 0.0 0.00 0.00 0.00 90 1014.2
20201026143823 75 291 0.0 0.0 0.00 0.00 0.00 90 1014.2
20201026143316 75 290 0.0 0.0 0.00 0.00 0.00 91 1014.0
20201026142825 74 309 0.0 0.0 0.00 0.00 0.00 91 1013.9
20201026142327 74 315 0.0 0.0 0.00 0.00 0.00 92 1013.8
20201026141829 74 306 0.0 0.0 0.00 0.00 0.00 92 1013.6
20201026141319 74 306 0.0 0.0 0.00 0.00 0.00 92 1013.5
20201026140824 74 306 0.0 0.0 0.00 0.00 0.00 92 1013.4
20201026140328 74 304 0.0 0.0 0.00 0.00 0.00 92 1013.3
20201026135832 74 304 0.0 0.0 0.00 0.00 0.00 92 1013.3
20201026135338 74 304 0.0 0.0 0.00 0.00 0.00 92 1013.2
20201026134822 74 302 0.0 0.0 0.00 0.00 0.00 92 1013.1
20201026134332 74 302 0.0 0.0 0.00 0.00 0.00 93 1013.1
20201026133818 74 302 0.0 0.0 0.00 0.00 0.00 92 1012.9
20201026133329 73 302 0.0 0.0 0.00 0.00 0.00 92 1012.9
20201026132823 73 302 0.0 0.0 0.00 0.00 0.00 92 1012.9
20201026132330 73 304 0.0 0.0 0.00 0.00 0.00 92 1013.0
20201026131824 73 304 0.0 4.0 0.00 0.00 0.00 92 1012.9
20201026131329 73 304 0.0 5.0 0.00 0.00 0.00 92 1012.8
20201026130835 73 304 2.0 5.0 0.00 0.00 0.00 92 1012.7
20201026130326 73 299 0.0 5.0 0.00 0.00 0.00 92 1012.7
20201026125834 73 299 1.0 4.0 0.00 0.00 0.00 92 1012.6
20201026125319 73 311 0.0 0.0 0.00 0.00 0.00 92 1012.5
20201026124828 73 311 0.0 0.0 0.00 0.00 0.00 92 1012.5
20201026124317 73 317 0.0 0.0 0.00 0.00 0.00 92 1012.5
20201026123825 73 317 0.0 0.0 0.00 0.00 0.00 92 1012.6
20201026123335 73 318 0.0 0.0 0.00 0.00 0.00 92 1012.5
20201026122828 73 318 0.0 0.0 0.00 0.00 0.00 92 1012.5
20201026122332 73 321 0.0 4.0 0.00 0.00 0.00 92 1012.4
20201026121818 73 321 0.0 6.0 0.00 0.00 0.00 92 1012.3
20201026121329 73 321 0.0 6.0 0.00 0.00 0.00 92 1012.2
20201026120835 73 317 0.0 6.0 0.00 0.00 0.00 92 1012.1
20201026120326 73 315 1.0 6.0 0.00 0.00 0.00 92 1012.2
20201026115821 73 314 0.0 6.0 0.00 0.00 0.00 92 1012.2
20201026115330 73 305 1.0 5.0 0.00 0.00 0.00 92 1012.2
20201026114817 73 303 2.0 5.0 0.00 0.00 0.00 92 1012.2
20201026114340 74 293 0.0 6.0 0.00 0.00 0.00 92 1012.2
20201026113833 74 293 2.0 6.0 0.00 0.00 0.00 92 1012.1
20201026113321 74 303 0.0 7.0 0.00 0.00 0.00 92 1012.0
20201026112839 74 302 3.0 7.0 0.00 0.00 0.00 92 1011.9
20201026112319 74 306 1.0 6.0 0.00 0.00 0.00 92 1011.9
20201026111829 74 305 3.0 6.0 0.00 0.00 0.00 92 1011.8
20201026111316 74 302 0.0 6.0 0.00 0.00 0.00 92 1011.7
20201026110824 74 298 0.0 5.0 0.00 0.00 0.00 92 1011.7
20201026110334 74 292 0.0 4.0 0.00 0.00 0.00 91 1011.5
20201026105824 74 292 0.0 5.0 0.00 0.00 0.00 91 1011.4
20201026105330 74 292 3.0 6.0 0.00 0.00 0.00 91 1011.3
20201026104821 74 319 0.0 6.0 0.00 0.00 0.00 91 1011.3
20201026104328 74 323 4.0 7.0 0.00 0.00 0.00 91 1011.2
20201026103837 74 320 5.0 7.0 0.00 0.00 0.00 91 1011.1
20201026103324 74 324 2.0 5.0 0.00 0.00 0.00 92 1011.0
20201026102819 74 325 0.0 5.0 0.00 0.00 0.00 92 1011.0
20201026102326 74 329 0.0 5.0 0.00 0.00 0.00 92 1011.0
20201026101841 74 330 1.0 7.0 0.00 0.00 0.00 92 1011.0
20201026101323 74 332 1.0 8.0 0.00 0.00 0.00 92 1011.0
20201026100832 74 333 2.0 8.0 0.00 0.00 0.00 92 1010.9
20201026100322 74 331 0.0 5.0 0.00 0.00 0.00 92 1010.9
20201026095832 74 330 1.0 7.0 0.00 0.00 0.00 92 1010.8
20201026095317 74 336 5.0 7.0 0.00 0.00 0.00 92 1010.8
20201026094829 74 338 1.0 8.0 0.00 0.00 0.00 92 1010.8
20201026094324 74 338 2.0 8.0 0.00 0.00 0.00 92 1010.7
20201026093837 74 326 2.0 8.0 0.00 0.00 0.00 92 1010.8
20201026093318 74 321 3.0 8.0 0.00 0.00 0.00 92 1010.8
20201026092829 74 337 0.0 7.0 0.00 0.00 0.00 92 1010.9
20201026092337 74 333 3.0 7.0 0.00 0.00 0.00 92 1010.8
20201026091822 74 329 3.0 6.0 0.00 0.00 0.00 92 1010.9
20201026091330 74 334 1.0 8.0 0.00 0.00 0.00 92 1010.9
20201026090827 74 333 5.0 8.0 0.00 0.00 0.00 92 1010.8
20201026090332 74 343 1.0 7.0 0.00 0.00 0.00 92 1010.8
20201026085822 74 347 2.0 5.0 0.00 0.00 0.00 92 1010.8
20201026085331 74 346 2.0 4.0 0.00 0.00 0.00 92 1010.9
20201026084818 74 346 2.0 5.0 0.00 0.00 0.00 92 1010.8
20201026084325 74 348 0.0 8.0 0.00 0.00 0.00 92 1010.9
20201026083838 74 344 2.0 6.0 0.00 0.00 0.00 92 1011.0
20201026083327 74 344 0.0 6.0 0.00 0.00 0.00 92 1010.9
20201026082834 74 344 3.0 6.0 0.00 0.00 0.00 92 1010.9
20201026082326 74 338 2.0 6.0 0.00 0.00 0.00 92 1010.9
20201026081830 74 339 0.0 5.0 0.00 0.00 0.00 92 1011.0
20201026081410 74 338 2.0 5.0 0.00 0.00 0.00 92 1011.0
20201026080832 74 327 3.0 6.0 0.00 0.00 0.00 93 1011.1
20201026080323 74 323 3.0 6.0 0.00 0.00 0.00 93 1011.0
20201026075828 74 346 1.0 5.0 0.00 0.00 0.00 93 1011.0
20201026075319 74 347 0.0 5.0 0.00 0.00 0.00 93 1010.9
20201026074827 74 344 3.0 6.0 0.00 0.00 0.00 93 1010.9
20201026074317 74 327 0.0 0.0 0.00 0.00 0.00 92 1010.9
20201026073827 74 329 0.0 0.0 0.00 0.00 0.00 92 1010.9
20201026073336 74 329 0.0 0.0 0.00 0.00 0.00 92 1010.9
20201026072320 74 329 0.0 1.0 0.00 0.00 0.00 92 1010.8
20201026071828 74 327 0.0 4.0 0.00 0.00 0.00 92 1010.8
20201026071322 74 328 2.0 4.0 0.00 0.00 0.00 92 1010.8
20201026070829 74 327 2.0 4.0 0.00 0.00 0.00 92 1010.8
20201026070336 74 327 1.0 7.0 0.00 0.00 0.00 92 1010.8
20201026065822 74 325 3.0 7.0 0.00 0.00 0.00 91 1010.8
20201026065330 74 340 2.0 6.0 0.00 0.00 0.00 91 1010.8
20201026064817 74 355 0.0 4.0 0.00 0.00 0.00 91 1010.8
20201026064325 74 355 2.0 6.0 0.00 0.00 0.00 91 1010.9
20201026063821 74 355 4.0 6.0 0.00 0.00 0.00 91 1010.9
20201026063330 74 355 2.0 4.0 0.00 0.00 0.00 91 1010.9
20201026062817 75 355 2.0 7.0 0.00 0.00 0.00 90 1011.0
20201026062335 75 355 3.0 7.0 0.00 0.00 0.00 90 1011.0
20201026061814 75 5 3.0 7.0 0.00 0.00 0.00 90 1010.9
20201026061324 75 5 3.0 7.0 0.00 0.00 0.00 90 1010.9
20201026060832 75 346 3.0 6.0 0.00 0.00 0.00 89 1010.9
20201026060322 75 350 3.0 6.0 0.00 0.00 0.00 89 1011.0
20201026055836 75 350 2.0 8.0 0.00 0.00 0.00 89 1011.0
20201026055321 75 351 4.0 8.0 0.00 0.00 0.00 89 1011.1
20201026054832 75 340 3.0 7.0 0.00 0.00 0.00 89 1011.1
20201026054324 75 346 0.0 5.0 0.00 0.00 0.00 88 1011.1
20201026053827 75 348 1.0 3.0 0.00 0.00 0.00 88 1011.1
20201026053320 76 342 0.0 6.0 0.00 0.00 0.00 88 1011.2
20201026052827 76 342 3.0 6.0 0.00 0.00 0.00 87 1011.2
20201026052335 76 350 0.0 6.0 0.00 0.00 0.00 87 1011.2
20201026051823 76 349 2.0 6.0 0.00 0.00 0.00 86 1011.2
20201026051319 76 355 4.0 6.0 0.00 0.00 0.00 86 1011.2
20201026050831 76 344 3.0 6.0 0.00 0.00 0.00 86 1011.2
20201026045831 76 339 3.0 7.0 0.00 0.00 0.00 86 1011.2
20201026045320 76 355 3.0 7.0 0.00 0.00 0.00 86 1011.2
20201026044824 76 10 4.0 7.0 0.00 0.00 0.00 86 1011.2
20201026044332 76 13 3.0 7.0 0.00 0.00 0.00 86 1011.2
20201026043821 76 9 3.0 9.0 0.00 0.00 0.00 85 1011.2
20201026043330 76 11 4.0 9.0 0.00 0.00 0.00 85 1011.2
20201026042820 76 5 6.0 9.0 0.00 0.00 0.00 85 1011.1
20201026042329 76 15 6.0 9.0 0.00 0.00 0.00 85 1011.1
20201026041817 76 355 7.0 9.0 0.00 0.00 0.00 85 1011.1
20201026041327 76 13 5.0 10.0 0.00 0.00 0.00 85 1011.0
20201026040813 76 350 5.0 10.0 0.00 0.00 0.00 85 1011.0
20201026040326 76 5 4.0 10.0 0.00 0.00 0.00 85 1011.0
20201026035835 76 9 7.0 10.0 0.00 0.00 0.00 84 1010.9
20201026035326 76 19 5.0 14.0 0.00 0.00 0.00 84 1010.9
20201026034830 76 31 7.0 14.0 0.00 0.00 0.00 84 1010.9
20201026034316 76 17 4.0 11.0 0.00 0.00 0.00 84 1010.9
20201026033828 76 347 6.0 10.0 0.00 0.00 0.00 84 1010.8
20201026033318 76 355 5.0 11.0 0.00 0.00 0.00 84 1010.8
20201026032826 76 9 4.0 12.0 0.00 0.00 0.00 83 1010.8
20201026032333 76 5 7.0 14.0 0.00 0.00 0.00 83 1010.8
20201026031823 77 18 5.0 14.0 0.00 0.00 0.00 83 1010.7
20201026031331 77 344 6.0 12.0 0.00 0.00 0.00 83 1010.6
20201026030818 77 355 5.0 9.0 0.00 0.00 0.00 83 1010.7
20201026030325 77 355 3.0 8.0 0.00 0.00 0.00 83 1010.7
20201026025833 77 13 4.0 8.0 0.00 0.00 0.00 82 1010.6
20201026025329 77 34 3.0 7.0 0.00 0.00 0.00 82 1010.6
20201026024836 77 5 3.0 10.0 0.00 0.00 0.00 82 1010.6
20201026024323 77 360 7.0 10.0 0.00 0.00 0.00 82 1010.6
20201026023835 77 11 5.0 9.0 0.00 0.00 0.00 82 1010.5
20201026023323 77 312 4.0 8.0 0.00 0.00 0.00 82 1010.5
20201026022830 77 355 3.0 9.0 0.00 0.00 0.00 82 1010.5
20201026022337 77 10 4.0 9.0 0.00 0.00 0.00 82 1010.5
20201026021826 77 344 3.0 9.0 0.00 0.00 0.00 82 1010.4
20201026021332 77 342 5.0 9.0 0.00 0.00 0.00 81 1010.4
20201026020825 77 336 5.0 9.0 0.00 0.00 0.00 81 1010.4
20201026020334 78 9 2.0 9.0 0.00 0.00 0.00 81 1010.4
20201026015823 78 19 5.0 9.0 0.00 0.00 0.00 81 1010.3
20201026015334 78 19 4.0 9.0 0.00 0.00 0.00 81 1010.3
20201026014821 78 28 6.0 10.0 0.00 0.00 0.00 81 1010.2
20201026014330 78 355 7.0 11.0 0.00 0.00 0.00 80 1010.1
20201026013818 78 5 3.0 11.0 0.00 0.00 0.00 80 1010.1
20201026013328 78 5 5.0 9.0 0.00 0.00 0.00 80 1010.1
20201026012832 78 28 5.0 10.0 0.00 0.00 0.00 80 1010.0
20201026012324 78 344 5.0 11.0 0.00 0.00 0.00 79 1010.0
20201026011833 78 355 5.0 11.0 0.00 0.00 0.00 78 1009.9
20201026011322 78 334 5.0 12.0 0.00 0.00 0.00 78 1009.9
20201026010830 78 17 5.0 12.0 0.00 0.00 0.00 77 1009.9
20201026010320 78 10 6.0 10.0 0.00 0.00 0.00 77 1009.8
20201026005828 78 360 3.0 8.0 0.00 0.00 0.00 77 1009.7
20201026005339 78 321 4.0 8.0 0.00 0.00 0.00 77 1009.6
20201026004827 78 14 5.0 9.0 0.00 0.00 0.00 77 1009.6
20201026004336 79 313 3.0 9.0 0.00 0.00 0.00 76 1009.5
20201026003827 79 355 4.0 9.0 0.00 0.00 0.00 75 1009.5
20201026003326 79 17 5.0 9.0 0.00 0.00 0.00 75 1009.5
20201026002833 80 24 3.0 10.0 0.00 0.00 0.00 75 1009.4
20201026002334 80 355 5.0 9.0 0.00 0.00 0.00 74 1009.3
20201026001824 80 349 3.0 10.0 0.00 0.00 0.00 74 1009.3
20201026001332 80 24 6.0 10.0 0.00 0.00 0.00 74 1009.2
20201026000818 80 360 6.0 12.0 0.00 0.00 0.00 73 1009.2
20201026000338 80 5 6.0 12.0 0.00 0.00 0.00 73 1009.0
20201025235817 80 309 5.0 10.0 0.00 0.00 0.00 72 1009.0
20201025235329 80 19 3.0 9.0 0.00 0.00 0.00 71 1008.9
20201025234816 81 336 4.0 10.0 0.00 0.00 0.00 70 1008.9
20201025234325 81 343 6.0 12.0 0.00 0.00 0.00 70 1008.7
20201025233832 81 360 5.0 12.0 0.00 0.00 0.00 69 1008.6
20201025233320 82 360 5.0 13.0 0.00 0.00 0.00 69 1008.6
20201025232830 82 5 6.0 13.0 0.00 0.00 0.00 68 1008.6
20201025232319 82 32 7.0 11.0 0.00 0.00 0.00 67 1008.5
20201025231834 83 355 6.0 13.0 0.00 0.00 0.00 67 1008.6
20201025231318 83 27 9.0 13.0 0.00 0.00 0.00 66 1008.5
20201025230829 83 22 5.0 14.0 0.00 0.00 0.00 65 1008.4
20201025230321 83 55 7.0 14.0 0.00 0.00 0.00 65 1008.5
20201025225832 83 28 8.0 11.0 0.00 0.00 0.00 64 1008.4
20201025225326 83 344 4.0 13.0 0.00 0.00 0.00 64 1008.4
20201025224832 84 15 7.0 13.0 0.00 0.00 0.00 64 1008.4
20201025224318 84 5 6.0 11.0 0.00 0.00 0.00 63 1008.5
20201025223828 84 17 6.0 17.0 0.00 0.00 0.00 63 1008.4
20201025223342 84 24 8.0 17.0 0.00 0.00 0.00 62 1008.4
20201025222824 84 36 7.0 13.0 0.00 0.00 0.00 63 1008.3
20201025222337 85 355 5.0 11.0 0.00 0.00 0.00 62 1008.3
20201025221823 85 22 7.0 12.0 0.00 0.00 0.00 62 1008.4
20201025221331 85 5 7.0 12.0 0.00 0.00 0.00 61 1008.5
20201025220818 85 13 5.0 12.0 0.00 0.00 0.00 60 1008.5
20201025220331 85 23 7.0 14.0 0.00 0.00 0.00 59 1008.6
20201025215820 86 17 6.0 15.0 0.00 0.00 0.00 59 1008.4
20201025215327 86 355 7.0 15.0 0.00 0.00 0.00 59 1008.3
20201025214834 85 5 5.0 14.0 0.00 0.00 0.00 60 1008.5
20201025214321 86 28 10.0 14.0 0.00 0.00 0.00 59 1008.5